sat.trackr.live / text

‹ back to catalog

YAOGAN-36 02A

NORAD 54042 · 2022-133A

PAYLOAD ACTIVE UNKNOWN

§ Identity

Operator
Country
PRC
Launch date
2022-10-14
Launch site
XICLF
Launch vehicle
Mass (kg)
RCS (m²)

External: N2YO · Heavens-Above · Gunter

§ Orbital elements

Epoch: 2026-09-20T22:51:33.156576Z

Period
94.56 min
Inclination
35.0054°
Eccentricity
0.0028704
Mean motion
15.22777286 rev/d
Perigee alt
477.7 km
Apogee alt
517.2 km
Semi-major
6,875.6 km
B*
2.9703e-4
RAAN
237.5654°
Arg perigee
345.8745°
Mean anomaly
14.1166°
Rev number
21,936

§ Raw data

YAOGAN-36 02A1 54042U 22133A   26263.95246709  .00007159  00000+0  29703-3 0  99922 54042  35.0054 237.5654 0028704 345.8745  14.1166 15.22777286219360

JSON: /api/v1/satellites/54042 · /tle

For live sub-satellite position, see the globe view (requires WebGL).

§ Visibility from observer

Set your observer location to see the next 7 days of passes ≥ 10°. The values pass through the URL so the page stays shareable.

No JS? Fill the form by hand. The geolocation button needs JavaScript.